Flag for Canada Weather past 2 weeks in Trois-Rivieres, Quebec, Canada

Now
46 °F

Cool.


Feels Like: 40 °F
Forecast: N/A
Wind: 13 mph from Southwest

Location: Trois Rivieres

Current Time: Oct 20, 2014 at 6:16:46 PM

Latest Report: Oct 20, 2014 at 6:00 PM


Visibility: N/A

Pressure: 29.92 "Hg

Humidity: 64%

Dew point: 34 °F

Location of Trois-RivieresLocation

Historic Weather in Trois-Rivieres — Graph

°F

Trois-Rivieres temperature yesterday

Maximum temperature yesterday: 45 °F (at 4:00 PM)
Minimum temperature yesterday: 37 °F (at 7:00 AM)
Average temperature yesterday: 41 °F

Past Weeks' High & Low Weather Summary

 TemperatureHumidityPressure
High68 °F (Oct 14, 9:00 PM)100% (Oct 8, 12:00 AM)30.27 "Hg (Oct 8, 12:00 AM)
Low36 °F (Oct 20, 7:00 AM)49% (Oct 6, 1:00 PM)29.43 "Hg (Oct 18, 3:00 PM)
Average52 °F80%29.87 "Hg
* Reported Oct 5 5:00 PM — Oct 20 5:00 PM, Trois-Rivieres, Weather by CustomWeather, © 2014

Note: Actual official high and low records may vary slightly from our data, if they occured in-between our weather recording intervals... More about our weather records

Advertising

Trois-Rivieres weather history for previous 24 hours

 ConditionsComfort  
Time TempWeatherWind HumidityBarometerVisibility
5:00 PM
Oct 20
44 °FQuite cool.10 mph62%29.92 "HgN/A
4:00 PM45 °FQuite cool.10 mph59%29.91 "HgN/A
3:00 PM44 °FQuite cool.13 mph55%29.91 "HgN/A
2:00 PM43 °FQuite cool.13 mph65%29.91 "HgN/A
12:00 PM42 °FQuite cool.8 mph55%29.95 "HgN/A
11:00 AM41 °FQuite cool.6 mph55%29.96 "HgN/A
10:00 AM41 °FQuite cool.5 mph55%29.97 "HgN/A
9:00 AM38 °FChilly.5 mph62%29.96 "HgN/A
8:00 AM37 °FChilly.7 mph69%29.96 "HgN/A
7:00 AM36 °FChilly.8 mph70%29.95 "HgN/A
6:00 AM38 °FChilly.12 mph71%29.94 "HgN/A
5:00 AM37 °FChilly.10 mph69%29.94 "HgN/A
4:00 AM37 °FChilly.12 mph69%29.93 "HgN/A
3:00 AM37 °FChilly.6 mph67%29.93 "HgN/A
2:00 AM37 °FChilly.7 mph65%29.92 "HgN/A
1:00 AM38 °FChilly.6 mph66%29.92 "HgN/A
11:00 PM
Oct 19
38 °FChilly.5 mph72%29.91 "HgN/A
10:00 PM38 °FChilly.3 mph69%29.92 "HgN/A
9:00 PM39 °FChilly.7 mph68%29.92 "HgN/A
8:00 PM39 °FChilly.2 mph63%29.92 "HgN/A
7:00 PM40 °FQuite cool.6 mph64%29.90 "HgN/A
6:00 PM43 °FQuite cool.10 mph57%29.88 "HgN/A
Weather by CustomWeather, © 2014

See weather overviewHow to use our weather pages